This is the latest recevied weather packets stored in our database for station/object KMASWX. If no packets are shown the sender has not sent any weather packets the latest 10 day(s).
| Time | Temp. | Humidity | Pressure | Rain* | Wind** | Luminosity | Snow |
|---|---|---|---|---|---|---|---|
| 1777606116 | 21.11° C | 28% | - | 0 mm | - | - | - |
| 1777605813 | 21.11° C | 28% | - | 0 mm | - | - | - |
| 1777605510 | 21.11° C | 28% | - | 0 mm | - | - | - |
| 1777604902 | 22.78° C | 26% | - | 0 mm | - | - | - |
| 1777604598 | 22.78° C | 25% | - | 0 mm | - | - | - |
| 1777604292 | 22.78° C | 25% | - | 0 mm | - | - | - |
| 1777603988 | 23.33° C | 25% | - | 0 mm | - | - | - |
| 1777603685 | 23.33° C | 25% | - | 0 mm | - | - | - |
| 1777603379 | 23.89° C | 25% | - | 0 mm | - | - | - |
| 1777603075 | 23.89° C | 25% | - | 0 mm | - | - | - |
| 1777602771 | 23.89° C | 24% | - | 0 mm | - | - | - |
| 1777602468 | 23.89° C | 26% | - | 0 mm | - | - | - |
| 1777602162 | 23.89° C | 26% | - | 0 mm | - | - | - |
| 1777601857 | 24.44° C | 26% | - | 0 mm | - | - | - |
| 1777601553 | 24.44° C | 25% | - | 0 mm | - | - | - |
| 1777601251 | 24.44° C | 26% | - | 0 mm | - | - | - |
| 1777600946 | 24.44° C | 26% | - | 0 mm | - | - | - |
| 1777600640 | 23.89° C | 26% | - | 0 mm | - | - | - |
| 1777600336 | 24.44° C | 26% | - | 0 mm | - | - | - |
| 1777600033 | 24.44° C | 26% | - | 0 mm | - | - | - |
| 1777599726 | 24.44° C | 23% | - | 0 mm | - | - | - |
| 1777599422 | 25° C | 24% | - | 0 mm | - | - | - |
| 1777599114 | 25° C | 25% | - | 0 mm | - | - | - |
| 1777598811 | 25° C | 23% | - | 0 mm | - | - | - |
| 1777598507 | 25° C | 22% | - | 0 mm | - | - | - |
* Rain latest 24 hours (hover to see other rain measurements)
** Current wind speed in m/s (hover to see current wind gust speed)